Huntington, WV

10:46 AM EDT on March 23, 2017 (GMT -0400)
Tri-State / Ferguson

Weather History for KHTS - November, 2012

Change the Weather History Date:

Friday, November 23, 2012

  Actual Average Record
Temperature  
Mean Temperature 45 °F 44 °F  
Max Temperature 55 °F 53 °F 78 °F (1931)
Min Temperature 34 °F 35 °F 12 °F (1956)
Degree Days  
Heating Degree Days 20 21  
Month to date heating degree days 462 392  
Since 1 July heating degree days 863 731  
Cooling Degree Days 0 0  
Month to date cooling degree days 0 0  
Year to date cooling degree days 1325 1132  
Moisture  
Dew Point 36 °F    
Average Humidity 51    
Maximum Humidity 60    
Minimum Humidity 41    
Precipitation  
Precipitation 0.02 in 0.12 in 0.97 in (1942)
Month to date precipitation 0.35 2.62  
Year to date precipitation 35.94 38.46  
Snow  
Snow T in - - ()
Month to date snowfall T  
Since 1 September snowfall 1.9  
Snow Depth 0.00 in    
Sea Level Pressure  
Sea Level Pressure 30.01 in    
Wind  
Wind Speed 9 mph (WSW)    
Max Wind Speed 17 mph    
Max Gust Speed 29 mph    
Visibility 9 miles    
Events Rain , Snow    
T = Trace of Precipitation, MM = Missing Value Source: NWS Daily Summary

Daily Weather History Graph

Daily Weather History Graph

Search for Another Location

Airport or City:

Trip Planner

Search our weather history database for the weather conditions in past years. The results will help you decide how hot, cold, wet, or windy it might be!

Date:

Astronomy

Nov. 23, 2012 Rise Set
Actual Time 7:20 AM EST 5:12 PM EST
Civil Twilight 6:52 AM EST 5:41 PM EST
Nautical Twilight 6:19 AM EST 6:13 PM EST
Astronomical Twilight 5:47 AM EST 6:45 PM EST
Moon 2:23 PM EST 2:41 AM EST
Length of Visible Light 10h 49m
Length of Day
9h 51m
Waxing Gibbous, 79% of the Moon is Illuminated
Nov 23
Waxing Gibbous
Nov 28
Full
Dec 6
Last Quarter
Dec 13
New
Dec 20
First Quarter

Hourly Weather History & Observations

Time (EST) Temp. Windchill Dew Point Humidity Pressure Visibility Wind Dir Wind Speed Gust Speed Precip Events Conditions
12:51 AM 48.0 °F - 34.0 °F 58% 30.07 in 10.0 mi SSW 6.9 mph - N/A   Clear
1:51 AM 48.0 °F - 34.0 °F 58% 30.06 in 10.0 mi South 5.8 mph - N/A   Clear
2:51 AM 50.0 °F - 35.1 °F 57% 30.05 in 10.0 mi South 8.1 mph - N/A   Clear
3:51 AM 50.0 °F - 35.1 °F 57% 30.03 in 10.0 mi SSW 10.4 mph - N/A   Clear
4:51 AM 51.1 °F - 37.0 °F 59% 30.02 in 10.0 mi South 10.4 mph - N/A   Clear
5:51 AM 51.1 °F - 37.0 °F 59% 30.00 in 10.0 mi South 11.5 mph - N/A   Clear
6:51 AM 52.0 °F - 37.9 °F 59% 29.99 in 10.0 mi SSW 6.9 mph - N/A   Clear
7:51 AM 53.1 °F - 37.9 °F 57% 29.98 in 10.0 mi South 8.1 mph - N/A   Clear
8:51 AM 54.0 °F - 39.0 °F 57% 29.98 in 10.0 mi SSW 6.9 mph - N/A   Clear
9:51 AM 54.0 °F - 39.9 °F 59% 29.97 in 10.0 mi SW 6.9 mph - 0.00 in Rain Light Rain
10:51 AM 54.0 °F - 43.0 °F 66% 29.97 in 8.0 mi WSW 11.5 mph 18.4 mph 0.00 in Rain Light Rain
11:51 AM 53.1 °F - 45.0 °F 74% 29.96 in 10.0 mi WSW 10.4 mph - 0.00 in   Overcast
12:23 PM 51.8 °F - 46.4 °F 82% 29.96 in 6.0 mi West 12.7 mph 19.6 mph 0.00 in Rain Light Rain
12:30 PM 50.0 °F - 46.4 °F 87% 29.96 in 1.0 mi West 9.2 mph 17.3 mph 0.00 in Rain Light Rain
12:49 PM 48.2 °F - 44.6 °F 87% 29.97 in 2.0 mi West 13.8 mph 19.6 mph N/A Rain Light Rain
12:51 PM 48.0 °F - 45.0 °F 89% 29.97 in 4.0 mi West 8.1 mph 19.6 mph 0.02 in Rain Light Rain
1:02 PM 48.2 °F - 44.6 °F 87% 29.96 in 4.0 mi WSW 5.8 mph - 0.00 in   Overcast
1:51 PM 48.9 °F - 44.1 °F 83% 29.96 in 6.0 mi West 9.2 mph 18.4 mph 0.00 in   Haze
2:51 PM 53.1 °F - 39.0 °F 59% 29.95 in 10.0 mi West 10.4 mph - N/A   Mostly Cloudy
3:51 PM 53.6 °F - 30.2 °F 41% 29.96 in 10.0 mi West 12.7 mph 18.4 mph N/A   Scattered Clouds
4:51 PM 48.9 °F - 26.1 °F 41% 30.00 in 10.0 mi West 13.8 mph 21.9 mph N/A   Clear
5:51 PM 46.0 °F 43.1 °F 27.0 °F 47% 30.04 in 10.0 mi WNW 5.8 mph - N/A   Clear
6:51 PM 46.0 °F 41.4 °F 27.0 °F 47% 30.06 in 10.0 mi West 9.2 mph 17.3 mph N/A   Mostly Cloudy
7:51 PM 42.1 °F 37.1 °F 26.1 °F 53% 30.10 in 10.0 mi NW 8.1 mph - N/A   Scattered Clouds
8:51 PM 39.9 °F 33.9 °F 25.0 °F 55% 30.12 in 10.0 mi NW 9.2 mph 18.4 mph N/A   Mostly Cloudy
9:51 PM 39.0 °F 33.4 °F 24.1 °F 55% 30.12 in 10.0 mi NW 8.1 mph - N/A   Mostly Cloudy
10:51 PM 36.0 °F 28.5 °F 24.1 °F 62% 30.14 in 9.0 mi North 10.4 mph - 0.00 in Snow Light Snow
11:51 PM 34.0 °F 25.5 °F 21.9 °F 61% 30.14 in 9.0 mi NW 11.5 mph 18.4 mph 0.00 in Snow Light Snow